Location: Malvern Link
(52.1333°N, 2.3000°W)
Time: 04:20:20
(UTC+00:00)

Envisat - Pass Details

Date: 30 January 2022
Orbit: 764 x 765 km, 98.2° (Epoch: 25 May)

Event Time Altitude Azimuth Distance (km) Brightness Sun altitude
Rises 06:45:35 0° 6° (N) 3,245 6.2 -10.4°
Reaches altitude 10° 06:48:20 10° 352° (N) 2,315 5.3 -10.0°
Maximum altitude 06:52:09 22° 303° (WNW) 1,643 4.2 -9.4°
Drops below altitude 10° 06:55:57 10° 255° (WSW) 2,305 5.0 -8.9°
Sets 06:58:42 0° 240° (WSW) 3,227 5.8 -8.5°
